Search for airport 
image banner adimage banner ad
image banner ad

VEBA - Kolkata (Behala)

Located in , India

ICAO - VEBA, IATA -

Data provided by Airmate  

General information

Coordinates: N22°30'3" E88°17'50"
Elevation is 10 feet MSL.
 
Rated:
View ratings: [VIEW]


View others Airports in West Bengal

Operational data

Open for public use
Current time UTC:
Current local time:
Weather at : VECC - Kolkata ( 23 km )
METAR: VECC 221230Z 31003KT 3800 HZ NSC 27/17 Q1015 NOSIG
TAF: TAF VECC 221100Z 2212/2318 34004KT 3200 HZ NSC BECMG 2300/2302 00000KT 1800 BR FEW020 BECMG 2304/2306 35005KT 4000 HZ NSC BECMG 2316/2318 2800 HZ
View NOTAMs / SUP AIP / TFR affecting this airport [VIEW]
Communications frequencies: [VIEW]

Runways:

RWY identifierQFULength (ft)Width (ft)SurfaceLDA (ft)
182830100asphalt
362830100asphalt

Airport contact information

Address: India

Satellite view of VEBA